When you browse on this site, cookies collect data to enhance your experience and personalize the content and advertising you see.
Visit our Privacy Policy to learn more. By continuing to use the site, you agree to this use of cookies and data.
  • In Hungary
  • List of Countries
  • For 7 days
  • Water Temperature
  • Weather Map
  • News
  • Weather Widgets
  • user-avatar
    Login

    Hourly Weather Makarino

    Today, 20 January, Monday

    Time Temperature Precipitation Wind Pressure Humidity
    00:00 0°C° 0 mm 5 mps 750 mmHg 91%
    01:00 0°C° 0 mm 5 mps 750 mmHg 88%
    02:00 0°C° 0 mm 5 mps 750 mmHg 85%
    03:00 0°C° 0 mm 5 mps 750 mmHg 87%
    04:00 0°C° 0 mm 5 mps 750 mmHg 88%
    05:00 -1°C° 0 mm 4 mps 750 mmHg 90%
    06:00 -1°C° 0 mm 4 mps 750 mmHg 90%
    07:00 -1°C° 0 mm 4 mps 750 mmHg 91%
    08:00 -1°C° 0 mm 4 mps 750 mmHg 91%
    09:00 0°C° 0 mm 5 mps 750 mmHg 90%
    10:00 0°C° 0 mm 5 mps 750 mmHg 88%
    11:00 0°C° 0 mm 5 mps 750 mmHg 86%
    12:00 0°C° 0 mm 5 mps 750 mmHg 88%
    13:00 -1°C° 0 mm 5 mps 750 mmHg 89%
    14:00 -1°C° 0 mm 5 mps 750 mmHg 90%
    15:00 -1°C° 0 mm 5 mps 750 mmHg 90%
    16:00 -1°C° 0 mm 5 mps 749 mmHg 89%
    17:00 -1°C° 0 mm 5 mps 749 mmHg 89%
    18:00 -1°C° 0 mm 5 mps 749 mmHg 86%
    19:00 -1°C° 0 mm 5 mps 748 mmHg 83%
    20:00 -1°C° 0 mm 5 mps 748 mmHg 80%
    21:00 -1°C° 0 mm 5 mps 747 mmHg 80%
    22:00 -2°C° 0 mm 5 mps 747 mmHg 80%
    23:00 -2°C° 0 mm 5 mps 746 mmHg 80%

    Tomorrow, 21 January, Tuesday

    Time Temperature Precipitation Wind Pressure Humidity
    00:00 -2°C° 0 mm 5 mps 746 mmHg 82%
    01:00 -2°C° 0 mm 5 mps 745 mmHg 84%
    02:00 -2°C° 0 mm 5 mps 744 mmHg 85%
    03:00 -2°C° 0.1 mm 6 mps 743 mmHg 86%
    04:00 -2°C° 0.1 mm 6 mps 742 mmHg 87%
    05:00 -2°C° 0.1 mm 6 mps 741 mmHg 87%
    06:00 -1°C° 0.1 mm 6 mps 740 mmHg 87%
    07:00 -1°C° 0.1 mm 7 mps 740 mmHg 87%
    08:00 0°C° 0.1 mm 7 mps 739 mmHg 87%
    09:00 +1°C° 0 mm 6 mps 739 mmHg 87%
    10:00 +2°C° 0 mm 6 mps 738 mmHg 87%
    11:00 +3°C° 0 mm 6 mps 737 mmHg 86%
    12:00 +3°C° 0 mm 6 mps 737 mmHg 87%
    13:00 +3°C° 0 mm 6 mps 736 mmHg 87%
    14:00 +3°C° 0 mm 5 mps 736 mmHg 88%
    15:00 +3°C° 0.4 mm 5 mps 735 mmHg 90%
    16:00 +4°C° 0.4 mm 4 mps 734 mmHg 91%
    17:00 +4°C° 0.4 mm 4 mps 734 mmHg 93%
    18:00 +2°C° 0.4 mm 5 mps 733 mmHg 89%
    19:00 +2°C° 0.4 mm 5 mps 733 mmHg 85%
    20:00 +2°C° 0.4 mm 6 mps 733 mmHg 81%
    21:00 +1°C° 0 mm 6 mps 733 mmHg 78%
    22:00 -1°C° 0 mm 6 mps 733 mmHg 76%
    23:00 -2°C° 0 mm 7 mps 733 mmHg 73%

    Day after tomorrow, 22 January, Wednesday

    Time Temperature Precipitation Wind Pressure Humidity
    00:00 -2°C° 0 mm 6 mps 733 mmHg 74%
    01:00 -3°C° 0 mm 6 mps 734 mmHg 74%
    02:00 -2°C° 0 mm 5 mps 734 mmHg 75%
    03:00 -2°C° 0 mm 5 mps 733 mmHg 75%
    04:00 -4°C° 0 mm 5 mps 732 mmHg 76%
    05:00 -4°C° 0 mm 5 mps 732 mmHg 76%
    06:00 -4°C° 0 mm 5 mps 731 mmHg 78%
    07:00 -4°C° 0 mm 5 mps 731 mmHg 79%
    08:00 -4°C° 0 mm 5 mps 731 mmHg 80%
    09:00 -3°C° 0.2 mm 6 mps 730 mmHg 77%
    10:00 -3°C° 0.2 mm 6 mps 730 mmHg 75%
    11:00 -3°C° 0.2 mm 6 mps 730 mmHg 72%
    12:00 -2°C° 0.1 mm 5 mps 730 mmHg 70%
    13:00 -2°C° 0.1 mm 5 mps 730 mmHg 68%
    14:00 -2°C° 0.1 mm 5 mps 729 mmHg 66%
    15:00 -4°C° 0 mm 5 mps 730 mmHg 68%
    16:00 -4°C° 0 mm 5 mps 730 mmHg 70%
    17:00 -5°C° 0 mm 5 mps 730 mmHg 72%
    18:00 -5°C° 0 mm 5 mps 730 mmHg 73%
    19:00 -5°C° 0 mm 5 mps 730 mmHg 75%
    20:00 -5°C° 0 mm 6 mps 731 mmHg 76%
    21:00 -5°C° 0 mm 6 mps 731 mmHg 74%
    22:00 -6°C° 0 mm 6 mps 732 mmHg 72%
    23:00 -6°C° 0 mm 6 mps 732 mmHg 70%

    23 January, Thursday

    Time Temperature Precipitation Wind Pressure Humidity
    00:00 -8°C° 0 mm 6 mps 733 mmHg 70%
    01:00 -8°C° 0 mm 6 mps 734 mmHg 70%
    02:00 -9°C° 0 mm 6 mps 734 mmHg 70%
    03:00 -9°C° 0 mm 6 mps 735 mmHg 68%
    04:00 -9°C° 0 mm 7 mps 735 mmHg 67%
    05:00 -9°C° 0 mm 7 mps 736 mmHg 65%
    06:00 -9°C° 0 mm 6 mps 736 mmHg 62%
    07:00 -9°C° 0 mm 6 mps 737 mmHg 60%
    08:00 -9°C° 0 mm 6 mps 738 mmHg 57%
    09:00 -9°C° 0 mm 6 mps 738 mmHg 56%
    10:00 -9°C° 0 mm 7 mps 739 mmHg 56%
    11:00 -9°C° 0 mm 7 mps 739 mmHg 55%
    12:00 -9°C° 0 mm 6 mps 740 mmHg 54%
    13:00 -9°C° 0 mm 6 mps 740 mmHg 54%
    14:00 -8°C° 0 mm 5 mps 741 mmHg 53%
    15:00 -8°C° 0 mm 5 mps 741 mmHg 55%
    16:00 -8°C° 0 mm 4 mps 741 mmHg 57%
    17:00 -8°C° 0 mm 3 mps 742 mmHg 59%
    18:00 -8°C° 0 mm 3 mps 742 mmHg 60%
    19:00 -7°C° 0 mm 2 mps 742 mmHg 61%
    20:00 -7°C° 0 mm 2 mps 742 mmHg 62%
    21:00 -6°C° 0 mm 2 mps 741 mmHg 66%
    22:00 -7°C° 0 mm 3 mps 741 mmHg 69%
    23:00 -6°C° 0 mm 3 mps 740 mmHg 73%

    24 January, Friday

    Time Temperature Precipitation Wind Pressure Humidity
    00:00 -7°C° 0.1 mm 4 mps 739 mmHg 79%
    01:00 -5°C° 0.1 mm 4 mps 738 mmHg 85%
    02:00 -6°C° 0.1 mm 5 mps 737 mmHg 91%
    03:00 -6°C° 0.2 mm 5 mps 736 mmHg 91%
    04:00 -5°C° 0.2 mm 6 mps 735 mmHg 90%
    05:00 -5°C° 0.2 mm 6 mps 734 mmHg 89%
    06:00 -4°C° 0.1 mm 6 mps 733 mmHg 90%
    07:00 -2°C° 0.1 mm 5 mps 733 mmHg 91%
    08:00 -1°C° 0.1 mm 5 mps 732 mmHg 91%
    09:00 -1°C° 0 mm 5 mps 732 mmHg 86%
    10:00 -1°C° 0 mm 6 mps 733 mmHg 81%
    11:00 +1°C° 0 mm 6 mps 733 mmHg 76%
    12:00 -1°C° 0 mm 6 mps 733 mmHg 75%
    13:00 0°C° 0 mm 5 mps 733 mmHg 74%
    14:00 0°C° 0 mm 5 mps 734 mmHg 72%
    15:00 -1°C° 0 mm 4 mps 734 mmHg 77%
    16:00 -2°C° 0 mm 4 mps 735 mmHg 81%
    17:00 -3°C° 0 mm 4 mps 735 mmHg 85%
    18:00 -3°C° 0 mm 4 mps 735 mmHg 87%
    19:00 -2°C° 0 mm 3 mps 736 mmHg 89%
    20:00 -2°C° 0 mm 3 mps 736 mmHg 91%
    21:00 -2°C° 0 mm 3 mps 736 mmHg 91%
    22:00 -2°C° 0 mm 3 mps 736 mmHg 91%
    23:00 -2°C° 0 mm 3 mps 736 mmHg 92%

    25 January, Saturday

    Time Temperature Precipitation Wind Pressure Humidity
    00:00 -2°C° 0 mm 3 mps 736 mmHg 92%
    01:00 -2°C° 0 mm 3 mps 735 mmHg 93%
    02:00 -2°C° 0 mm 2 mps 735 mmHg 93%
    03:00 -2°C° 0 mm 2 mps 735 mmHg 94%
    04:00 -2°C° 0 mm 2 mps 735 mmHg 95%
    05:00 -1°C° 0 mm 2 mps 734 mmHg 95%
    06:00 -1°C° 0.3 mm 2 mps 734 mmHg 96%
    07:00 -1°C° 0.3 mm 2 mps 734 mmHg 97%
    08:00 -1°C° 0.3 mm 2 mps 733 mmHg 98%
    09:00 +1°C° 0.1 mm 2 mps 734 mmHg 97%
    10:00 +1°C° 0.1 mm 3 mps 734 mmHg 96%
    11:00 +2°C° 0.1 mm 3 mps 734 mmHg 96%
    12:00 +2°C° 0.1 mm 3 mps 734 mmHg 94%
    13:00 +2°C° 0.1 mm 3 mps 734 mmHg 93%
    14:00 +2°C° 0.1 mm 3 mps 734 mmHg 91%
    15:00 +2°C° 0.1 mm 3 mps 734 mmHg 92%
    16:00 +1°C° 0.1 mm 3 mps 735 mmHg 93%
    17:00 +2°C° 0.1 mm 2 mps 735 mmHg 94%
    18:00 +2°C° 0 mm 2 mps 735 mmHg 94%
    19:00 +1°C° 0 mm 2 mps 736 mmHg 94%
    20:00 +1°C° 0 mm 2 mps 736 mmHg 94%
    21:00 +1°C° 0 mm 2 mps 736 mmHg 94%
    22:00 0°C° 0 mm 3 mps 736 mmHg 94%
    23:00 -1°C° 0 mm 3 mps 737 mmHg 95%
    Show more